{"data":{"norad_id":54689,"intl_designator":"2022-167H","name":"DONGPO 10","alt_names":[],"object_type":"PAYLOAD","status":"ACTIVE","operator":null,"country":"PRC","launch_date":"2022-12-09","launch_site_code":"SEAL","launch_vehicle":null,"mission":null,"orbit_class":"UNKNOWN","rcs_meters":null,"size_class":null,"mass_kg":null,"dimensions":null,"purposes":[],"wikipedia_slug":null,"has_3d_model":false,"image_url":null,"decayed_at":null,"tle_current":{"epoch":"2026-05-25T04:16:37.256736Z","epoch_age_seconds":56876,"freshness":"FRESH","line1":"1 54689U 22167H   26145.17820899  .00009451  00000+0  29055-3 0  9994","line2":"2 54689  97.6931 314.3544 0005147 179.6584 180.4662 15.33909802191839","mean_motion":15.33909802,"eccentricity":0.0005147,"inclination_deg":97.6931,"raan_deg":314.3544,"arg_perigee_deg":179.6584,"mean_anomaly_deg":180.4662,"bstar":0.00029055,"rev_number":19183,"period_min":93.877749403677,"perigee_km":460.638869388,"apogee_km":467.6823305374,"semimajor_km":6842.2975999627,"source":"CELESTRAK","updated_at":"2026-05-25T13:37:58.709192Z"}}}